This demonstration page uses our WeatherBlox Daily Observations layout. Learn more.

Left ArrowRight Arrow

Hourly Observations for September 3, 2015

Temp ( °F °C ) Dew Point ( °F °C ) Humidity (%) Winds ( mph kmh ) Pressure ( in mb ) Visibility ( mi km ) Precip ( " mm )
12:59 am 00:59 Mostly Cloudy 74 23.3 70 21.1 88 88 WSW 3 6 29.96 1015 7 11 0.00 0.00
1:59 am 01:59 Mostly Cloudy 75 23.9 69 20.6 82 82 W 5 7 29.95 1014 8 13 0.00 0.00
2:59 am 02:59 Mostly Cloudy 75 23.9 70 21.1 84 84 W 6 9 29.94 1014 7 11 0.00 0.00
3:59 am 03:59 Mostly Cloudy 74 23.3 70 21.1 88 88 W 6 9 29.93 1014 7 11 0.00 0.00
4:59 am 04:59 Mostly Cloudy with Haze 74 23.3 69 20.6 85 85 W 6 9 29.92 1013 6 10 0.00 0.00
5:59 am 05:59 Partly Cloudy 73 22.8 69 20.6 87 87 W 6 9 29.92 1013 7 11 0.00 0.00
6:59 am 06:59 Partly Cloudy with Mist and Fog 73 22.8 69 20.6 87 87 W 5 7 29.93 1013 6 10 0.00 0.00
7:59 am 07:59 Mostly Sunny 75 23.9 69 20.6 82 82 W 7 11 29.94 1014 7 11 0.00 0.00
8:59 am 08:59 Mostly Sunny 78 25.6 68 20 71 71 NW 10 17 29.93 1014 8 13 0.00 0.00
9:59 am 09:59 Mostly Sunny 81 27.2 68 20 65 65 WNW 7 11 29.93 1014 8 13 0.00 0.00
10:59 am 10:59 Sunny 85 29.4 68 20 57 57 N 3 6 29.93 1014 8 13 0.00 0.00
11:59 am 11:59 Mostly Sunny 86 30 70 21.1 59 59 WSW 3 6 29.93 1013 7 11 0.00 0.00
12:59 pm 12:59 Mostly Sunny 89 31.7 70 21.1 53 53 N 6 9 29.92 1013 7 11 0.00 0.00
1:59 pm 13:59 Mostly Sunny 88 31.1 70 21.1 55 55 NNE 6 9 29.91 1013 7 11 0.00 0.00
2:59 pm 14:59 Mostly Sunny 89 31.7 69 20.6 52 52 N 5 7 29.90 1012 7 11 0.00 0.00
3:59 pm 15:59 Mostly Sunny 89 31.7 67 19.4 48 48 ENE 6 9 29.87 1012 7 11 0.00 0.00
4:59 pm 16:59 Partly Cloudy 89 31.7 65 18.3 45 45 E 5 7 29.87 1012 7 11 0.00 0.00
5:59 pm 17:59 Partly Cloudy 88 31.1 65 18.3 46 46 ENE 5 7 29.87 1011 7 11 0.00 0.00
6:59 pm 18:59 Partly Cloudy 84 28.9 67 19.4 57 57 E 3 6 29.86 1011 7 11 0.00 0.00
7:59 pm 19:59 Partly Cloudy 79 26.1 68 20 69 69 ESE 3 6 29.87 1012 7 11 0.00 0.00
8:59 pm 20:59 Partly Cloudy 79 26.1 69 20.6 72 72 S 5 7 29.90 1012 7 11 0.00 0.00
9:59 pm 21:59 Mostly Cloudy 77 25 70 21.1 79 79 S 3 6 29.91 1013 7 11 0.00 0.00
10:59 pm 22:59 Mostly Cloudy 76 24.4 70 21.1 82 82 Calm 29.90 1013 7 11 0.00 0.00
11:59 pm 23:59 Partly Cloudy 76 24.4 72 22.2 88 88 SSW 3 6 29.90 1013 7 11 0.00 0.00

Powered by AerisWeather